Find Starlink 37247

NORAD ID: 69835 Int'l Des: 2026-154 Owner: SPXS Country: US Constellation: starlink operational
LEOCIRCULAR

当前视图

正在加载3D地球...

About Starlink 37247

Starlink 37247 (NORAD 69835) is a starlink constellation satellite (v2 mini) launched Jul 5, 2026 by SPXS of US. It operates in LEO, CIRCULAR orbit with a mass of 575.00 kg.

即将过境

Passes for default location (London). Set your location on the main map for personalized predictions.

高度历史

Loading altitude history...

两行轨道根数

1 69835U 26154S 26234.93485608 .00028122 00000-0 81395-3 0 9993
2 69835 53.1604 105.1896 0000613 86.4525 273.6548 15.35405074 8852
Epoch: Aug 22, 2026 • Age: 26 hours

当前状态

高度 478.4 km
远地点 / 近地点 N/A
速度 7.63 km/s
星下点 -53.13°S, 35.03°E
发射日期 Jul 5, 2026
运行时间 0.1 years
类型 internet

技术详情

分类 Payload
质量 575.00 kg
干质量 530.00 kg
总质量 575.00 kg
长度 0.30 m
直径 4.10 m
跨度 29.00 m
形状 Box + pan
制造商 SPXS
平台类型 Starlink V2MO
阶段状态 In Orbit
所有者/国家 SPXS/US

Most Searched